Regional Weather Roundup
Issued by NWS

Home | Current Version | Previous Version | Text Only | Print | Product List | Glossary On
Versions: 1 2 3 4 5 6 7 8 9 10 11 12 13 14 15 16 17 18 19 20 21 22 23 24 25 26 27 28
000
ASCA42 TJSJ 220210
RWRPR
PUERTO RICO/U.S. VIRGIN ISLANDS HOURLY WEATHER ROUNDUP
NATIONAL WEATHER SERVICE SAN JUAN PR
1000 PM AST TUE NOV 21 2017

PRZ001>002-007>008-010-220300-
PUERTO RICO

CITY           SKY/WX    TMP DP  RH WIND       PRES   REMARKS
SAN JUAN LMM   CLEAR     81  72  74 CALM      29.94S
AGUADILLA      CLEAR     73  72  94 CALM      29.95R
$$

VIZ001>002-220300-
U.S. VIRGIN ISLANDS

CITY           SKY/WX    TMP DP  RH WIND       PRES   REMARKS
CHARLOTTE AMA    N/A     77  73  88 MISG      29.96R
$$

HOURLY WEATHER ROUNDUP FOR THE NEWS MEDIA

CITY           SKY/WX    TMP DP  RH WIND       PRES   REMARKS
ORLANDO        MOCLDY    67  65  93 NE5       29.96R
NEW YORK       MOCLDY    49  42  77 SW8       30.07S
NEWARK         CLOUDY    51  37  58 S5        30.05S
CHICAGO        PTCLDY    30  15  53 NW15      30.15R WCI  19
HARTFORD       CLOUDY    57  43  59 SW16G28   30.04R
BOSTON         PTCLDY    51  40  65 SW16      30.00F
DALLAS         PTCLDY    62  46  55 N12       30.12R
PHILADELPHIA   CLOUDY    56  38  50 SW10      30.05R
LOS ANGELES    PTCLDY    68  57  68 W3        30.02R
WASHINGTON DC  CLOUDY    53  41  63 S8        30.04F



USA.gov is the U.S. government's official web portal to all federal, state and local government web resources and services.